Tracking 28779 objects as of 15-Apr-2024
HD Live streaming from Space Station
objects crossing your sky now

FENGYUN 1C DEB

Track FENGYUN 1C DEB now!
10-day predictions


NORAD ID: 31731
Int'l Code: 1999-025CEE
Perigee: 792.5 km
Apogee: 813.6 km
Inclination: 99.3 °
Period: 100.8 minutes
Semi major axis: 7174 km
RCS: 0.0064 m2 (small)
Launch date: May 10, 1999
Source: People's Republic of China (PRC)
Launch site: Taiyaun Space Center, China (TSC)

Note: This is SATELLITE DEBRIS
Your satellite tracking list
Your tracking list is empty




NASA's NSSDC Master Catalog

Two Line Element Set (TLE):
1 31731U 99025CEE 24104.50047112  .00006163  00000-0  24625-2 0  9998
2 31731  99.3334  98.2247 0014732  64.0401 296.2294 14.28759584871050
Source of the keplerian elements: AFSPC